Time,TemperatureF,DewpointF,PressureIn,WindDirection,WindDirectionDegrees,WindSpeedMPH,WindSpeedGustMPH,Humidity,HourlyPrecipIn,Conditions,Clouds,dailyrainin,SoftwareType,DateUTC
2013-10-11 00:02:00,68.8,34.1,29.81,North,0,0.0,0.0,28,0.00,,,0.00,WUHU216HW,2013-10-11 06:02:00,
2013-10-11 00:07:00,68.8,34.1,29.81,North,0,0.0,0.0,28,0.00,,,0.00,WUHU216HW,2013-10-11 06:07:00,
2013-10-11 00:12:00,68.8,34.1,29.83,North,0,0.0,0.0,28,0.00,,,0.00,WUHU216HW,2013-10-11 06:12:00,
2013-10-11 00:17:00,68.9,34.3,29.83,North,0,0.0,0.0,28,0.00,,,0.00,WUHU216HW,2013-10-11 06:17:00,
2013-10-11 00:22:00,68.9,34.3,29.81,North,0,0.0,0.0,28,0.00,,,0.00,WUHU216HW,2013-10-11 06:22:00,
2013-10-11 00:27:00,68.9,34.3,29.81,North,0,0.0,0.0,28,0.00,,,0.00,WUHU216HW,2013-10-11 06:27:00,
2013-10-11 00:32:00,68.8,34.1,29.83,North,0,0.0,0.0,28,0.00,,,0.00,WUHU216HW,2013-10-11 06:32:00,
2013-10-11 00:37:00,68.9,34.3,29.81,North,0,0.0,0.0,28,0.00,,,0.00,WUHU216HW,2013-10-11 06:37:00,
2013-10-11 00:42:00,68.8,34.1,29.81,North,0,0.0,0.0,28,0.00,,,0.00,WUHU216HW,2013-10-11 06:42:00,
2013-10-11 00:47:00,68.8,34.1,29.82,North,0,0.0,0.0,28,0.00,,,0.00,WUHU216HW,2013-10-11 06:47:00,
2013-10-11 00:52:00,68.8,34.1,29.81,North,0,0.0,0.0,28,0.00,,,0.00,WUHU216HW,2013-10-11 06:52:00,
2013-10-11 00:57:00,68.6,33.9,29.81,North,0,0.0,0.0,28,0.00,,,0.00,WUHU216HW,2013-10-11 06:57:00,
2013-10-11 01:02:00,68.6,33.9,29.81,North,0,0.0,0.0,28,0.00,,,0.00,WUHU216HW,2013-10-11 07:02:00,
2013-10-11 01:07:00,68.6,33.9,29.82,North,0,0.0,0.0,28,0.00,,,0.00,WUHU216HW,2013-10-11 07:07:00,
2013-10-11 01:12:00,68.8,34.1,29.81,North,0,0.0,0.0,28,0.00,,,0.00,WUHU216HW,2013-10-11 07:12:00,
2013-10-11 01:17:00,69.1,34.5,29.81,North,0,0.0,0.0,28,0.00,,,0.00,WUHU216HW,2013-10-11 07:17:00,
2013-10-11 01:22:00,69.3,34.6,29.82,North,0,0.0,0.0,28,0.00,,,0.00,WUHU216HW,2013-10-11 07:22:00,
2013-10-11 01:27:00,69.3,34.6,29.83,North,0,0.0,0.0,28,0.00,,,0.00,WUHU216HW,2013-10-11 07:27:00,
2013-10-11 01:32:00,69.3,34.6,29.82,North,0,0.0,0.0,28,0.00,,,0.00,WUHU216HW,2013-10-11 07:32:00,
2013-10-11 01:37:00,69.3,34.6,29.82,North,0,0.0,0.0,28,0.00,,,0.00,WUHU216HW,2013-10-11 07:37:00,
2013-10-11 01:41:00,69.3,34.6,29.82,North,0,0.0,0.0,28,0.00,,,0.00,WUHU216HW,2013-10-11 07:41:00,
2013-10-11 01:46:00,69.3,34.6,29.82,North,0,0.0,0.0,28,0.00,,,0.00,WUHU216HW,2013-10-11 07:46:00,
2013-10-11 01:51:00,69.1,34.5,29.82,North,0,0.0,0.0,28,0.00,,,0.00,WUHU216HW,2013-10-11 07:51:00,
2013-10-11 01:56:00,69.1,34.5,29.82,North,0,0.0,0.0,28,0.00,,,0.00,WUHU216HW,2013-10-11 07:56:00,
2013-10-11 02:01:00,69.1,34.5,29.82,North,0,0.0,0.0,28,0.00,,,0.00,WUHU216HW,2013-10-11 08:01:00,
2013-10-11 02:06:00,68.9,35.3,29.83,North,0,0.0,0.0,29,0.00,,,0.00,WUHU216HW,2013-10-11 08:06:00,
2013-10-11 02:11:00,68.9,35.3,29.83,North,0,0.0,0.0,29,0.00,,,0.00,WUHU216HW,2013-10-11 08:11:00,
2013-10-11 02:16:00,68.8,35.1,29.83,North,0,0.0,0.0,29,0.00,,,0.00,WUHU216HW,2013-10-11 08:16:00,
2013-10-11 02:21:00,68.8,35.1,29.83,North,0,0.0,0.0,29,0.00,,,0.00,WUHU216HW,2013-10-11 08:21:00,
2013-10-11 02:27:00,68.6,34.9,29.83,North,0,0.0,0.0,29,0.00,,,0.00,WUHU216HW,2013-10-11 08:27:00,
2013-10-11 02:31:00,68.6,34.9,29.82,North,0,0.0,0.0,29,0.00,,,0.00,WUHU216HW,2013-10-11 08:31:00,
2013-10-11 02:36:00,68.4,34.8,29.82,North,0,0.0,0.0,29,0.00,,,0.00,WUHU216HW,2013-10-11 08:36:00,
2013-10-11 02:41:00,68.4,34.8,29.82,North,0,0.0,0.0,29,0.00,,,0.00,WUHU216HW,2013-10-11 08:41:00,
2013-10-11 02:46:00,68.2,34.7,29.83,North,0,0.0,0.0,29,0.00,,,0.00,WUHU216HW,2013-10-11 08:46:00,
2013-10-11 02:51:00,68.2,34.7,29.83,North,0,0.0,0.0,29,0.00,,,0.00,WUHU216HW,2013-10-11 08:51:00,
2013-10-11 02:56:00,68.2,34.7,29.83,North,0,0.0,0.0,29,0.00,,,0.00,WUHU216HW,2013-10-11 08:56:00,
2013-10-11 03:01:00,68.2,34.7,29.83,North,0,0.0,0.0,29,0.00,,,0.00,WUHU216HW,2013-10-11 09:01:00,
2013-10-11 03:07:00,68.0,35.5,29.83,North,0,0.0,0.0,30,0.00,,,0.00,WUHU216HW,2013-10-11 09:07:00,
2013-10-11 03:12:00,68.0,35.5,29.83,North,0,0.0,0.0,30,0.00,,,0.00,WUHU216HW,2013-10-11 09:12:00,
2013-10-11 03:17:00,68.0,35.5,29.83,North,0,0.0,0.0,30,0.00,,,0.00,WUHU216HW,2013-10-11 09:17:00,
2013-10-11 03:21:00,67.7,35.2,29.83,North,0,0.0,0.0,30,0.00,,,0.00,WUHU216HW,2013-10-11 09:21:00,
2013-10-11 03:26:00,67.5,35.7,29.83,North,0,0.0,0.0,31,0.00,,,0.00,WUHU216HW,2013-10-11 09:26:00,
2013-10-11 03:31:00,67.3,35.7,29.83,North,0,0.0,0.0,31,0.00,,,0.00,WUHU216HW,2013-10-11 09:31:00,
2013-10-11 03:36:00,67.0,35.3,29.83,North,0,0.0,0.0,31,0.00,,,0.00,WUHU216HW,2013-10-11 09:36:00,
2013-10-11 03:41:00,66.6,35.7,29.83,North,0,0.0,0.0,32,0.00,,,0.00,WUHU216HW,2013-10-11 09:41:00,
2013-10-11 03:46:00,66.6,35.7,29.83,North,0,0.0,0.0,32,0.00,,,0.00,WUHU216HW,2013-10-11 09:46:00,
2013-10-11 03:51:00,66.6,35.7,29.83,North,0,0.0,0.0,32,0.00,,,0.00,WUHU216HW,2013-10-11 09:51:00,
2013-10-11 03:57:00,66.4,35.7,29.83,North,0,0.0,0.0,32,0.00,,,0.00,WUHU216HW,2013-10-11 09:57:00,
2013-10-11 04:02:00,66.2,35.5,29.83,North,0,0.0,0.0,32,0.00,,,0.00,WUHU216HW,2013-10-11 10:02:00,
2013-10-11 04:07:00,66.4,35.7,29.83,North,0,0.0,0.0,32,0.00,,,0.00,WUHU216HW,2013-10-11 10:07:00,
2013-10-11 04:12:00,66.4,35.7,29.83,North,0,0.0,0.0,32,0.00,,,0.00,WUHU216HW,2013-10-11 10:12:00,
2013-10-11 04:17:00,66.2,35.5,29.83,North,0,0.0,0.0,32,0.00,,,0.00,WUHU216HW,2013-10-11 10:17:00,
2013-10-11 04:22:00,66.2,35.5,29.83,North,0,0.0,0.0,32,0.00,,,0.00,WUHU216HW,2013-10-11 10:22:00,
2013-10-11 04:27:00,66.2,35.5,29.83,North,0,0.0,0.0,32,0.00,,,0.00,WUHU216HW,2013-10-11 10:27:00,
2013-10-11 04:32:00,66.2,35.5,29.83,North,0,0.0,0.0,32,0.00,,,0.00,WUHU216HW,2013-10-11 10:32:00,
2013-10-11 04:37:00,66.2,35.5,29.84,North,0,0.0,0.0,32,0.00,,,0.00,WUHU216HW,2013-10-11 10:37:00,
2013-10-11 04:42:00,66.1,35.3,29.84,North,0,0.0,0.0,32,0.00,,,0.00,WUHU216HW,2013-10-11 10:42:00,
2013-10-11 04:47:00,66.1,35.3,29.84,North,0,0.0,0.0,32,0.00,,,0.00,WUHU216HW,2013-10-11 10:47:00,
2013-10-11 04:52:00,66.2,35.5,29.84,North,0,0.0,0.0,32,0.00,,,0.00,WUHU216HW,2013-10-11 10:52:00,
2013-10-11 04:57:00,66.2,35.5,29.84,North,0,0.0,0.0,32,0.00,,,0.00,WUHU216HW,2013-10-11 10:57:00,
2013-10-11 05:02:00,66.1,35.3,29.84,North,0,0.0,0.0,32,0.00,,,0.00,WUHU216HW,2013-10-11 11:02:00,
2013-10-11 05:07:00,66.1,35.3,29.84,North,0,0.0,0.0,32,0.00,,,0.00,WUHU216HW,2013-10-11 11:07:00,
2013-10-11 05:12:00,66.1,35.3,29.84,North,0,0.0,0.0,32,0.00,,,0.00,WUHU216HW,2013-10-11 11:12:00,
2013-10-11 05:16:00,66.1,35.3,29.84,North,0,0.0,0.0,32,0.00,,,0.00,WUHU216HW,2013-10-11 11:16:00,
2013-10-11 05:21:00,65.9,35.8,29.84,North,0,0.0,0.0,33,0.00,,,0.00,WUHU216HW,2013-10-11 11:21:00,
2013-10-11 05:26:00,65.9,35.8,29.84,North,0,0.0,0.0,33,0.00,,,0.00,WUHU216HW,2013-10-11 11:26:00,
2013-10-11 05:31:00,65.9,35.8,29.84,North,0,0.0,0.0,33,0.00,,,0.00,WUHU216HW,2013-10-11 11:31:00,
2013-10-11 05:36:00,65.7,35.0,29.84,North,0,0.0,0.0,32,0.00,,,0.00,WUHU216HW,2013-10-11 11:36:00,
2013-10-11 05:41:00,65.5,34.8,29.84,North,0,0.0,0.0,32,0.00,,,0.00,WUHU216HW,2013-10-11 11:41:00,
2013-10-11 05:46:00,65.5,34.8,29.84,North,0,0.0,0.0,32,0.00,,,0.00,WUHU216HW,2013-10-11 11:46:00,
2013-10-11 05:51:00,65.5,34.8,29.84,North,0,0.0,0.0,32,0.00,,,0.00,WUHU216HW,2013-10-11 11:51:00,
2013-10-11 05:56:00,65.5,34.8,29.84,North,0,0.0,0.0,32,0.00,,,0.00,WUHU216HW,2013-10-11 11:56:00,
2013-10-11 06:01:00,65.5,34.8,29.84,North,0,0.0,0.0,32,0.00,,,0.00,WUHU216HW,2013-10-11 12:01:00,
2013-10-11 06:06:00,65.5,34.8,29.84,North,0,0.0,0.0,32,0.00,,,0.00,WUHU216HW,2013-10-11 12:06:00,
2013-10-11 06:11:00,65.3,34.7,29.84,North,0,0.0,0.0,32,0.00,,,0.00,WUHU216HW,2013-10-11 12:11:00,
2013-10-11 06:17:00,65.2,34.5,29.85,North,0,0.0,0.0,32,0.00,,,0.00,WUHU216HW,2013-10-11 12:17:00,
2013-10-11 06:22:00,64.8,34.9,29.85,North,0,0.0,0.0,33,0.00,,,0.00,WUHU216HW,2013-10-11 12:22:00,
2013-10-11 06:27:00,64.8,34.9,29.85,North,0,0.0,0.0,33,0.00,,,0.00,WUHU216HW,2013-10-11 12:27:00,
2013-10-11 06:32:00,64.4,34.6,29.85,North,0,0.0,0.0,33,0.00,,,0.00,WUHU216HW,2013-10-11 12:32:00,
2013-10-11 06:37:00,64.1,34.2,29.85,North,0,0.0,0.0,33,0.00,,,0.00,WUHU216HW,2013-10-11 12:37:00,
2013-10-11 06:42:00,63.9,34.8,29.85,North,0,0.0,0.0,34,0.00,,,0.00,WUHU216HW,2013-10-11 12:42:00,
2013-10-11 06:47:00,63.9,34.8,29.85,North,0,0.0,0.0,34,0.00,,,0.00,WUHU216HW,2013-10-11 12:47:00,
2013-10-11 06:52:00,63.9,34.8,29.85,North,0,0.0,0.0,34,0.00,,,0.00,WUHU216HW,2013-10-11 12:52:00,
2013-10-11 06:57:00,63.7,34.7,29.86,North,0,0.0,0.0,34,0.00,,,0.00,WUHU216HW,2013-10-11 12:57:00,
2013-10-11 07:02:00,63.5,34.5,29.86,North,0,0.0,0.0,34,0.00,,,0.00,WUHU216HW,2013-10-11 13:02:00,
2013-10-11 07:07:00,63.2,34.1,29.86,North,0,0.0,0.0,34,0.00,,,0.00,WUHU216HW,2013-10-11 13:07:00,
2013-10-11 07:12:00,62.8,34.6,29.86,North,0,0.0,0.0,35,0.00,,,0.00,WUHU216HW,2013-10-11 13:12:00,
2013-10-11 07:17:00,62.8,34.6,29.86,North,0,0.0,0.0,35,0.00,,,0.00,WUHU216HW,2013-10-11 13:17:00,
2013-10-11 07:22:00,62.6,35.1,29.86,North,0,0.0,0.0,36,0.00,,,0.00,WUHU216HW,2013-10-11 13:22:00,
2013-10-11 07:27:00,62.8,35.3,29.86,North,0,0.0,0.0,36,0.00,,,0.00,WUHU216HW,2013-10-11 13:27:00,
2013-10-11 07:32:00,62.8,35.3,29.86,North,0,0.0,0.0,36,0.00,,,0.00,WUHU216HW,2013-10-11 13:32:00,
2013-10-11 07:37:00,62.6,35.1,29.86,North,0,0.0,0.0,36,0.00,,,0.00,WUHU216HW,2013-10-11 13:37:00,
2013-10-11 07:42:00,62.6,35.1,29.86,North,0,0.0,0.0,36,0.00,,,0.00,WUHU216HW,2013-10-11 13:42:00,
2013-10-11 07:47:00,62.6,35.1,29.86,North,0,0.0,0.0,36,0.00,,,0.00,WUHU216HW,2013-10-11 13:47:00,
2013-10-11 07:52:00,62.5,34.9,29.87,North,0,0.0,0.0,36,0.00,,,0.00,WUHU216HW,2013-10-11 13:52:00,
2013-10-11 07:57:00,62.6,35.1,29.87,North,0,0.0,0.0,36,0.00,,,0.00,WUHU216HW,2013-10-11 13:57:00,
2013-10-11 08:02:00,62.8,35.3,29.87,North,0,0.0,0.0,36,0.00,,,0.00,WUHU216HW,2013-10-11 14:02:00,
2013-10-11 08:07:00,63.0,35.5,29.87,North,0,0.0,0.0,36,0.00,,,0.00,WUHU216HW,2013-10-11 14:07:00,
2013-10-11 08:12:00,63.2,35.6,29.87,North,0,0.0,0.0,36,0.00,,,0.00,WUHU216HW,2013-10-11 14:12:00,
2013-10-11 08:17:00,63.4,35.7,29.88,North,0,0.0,0.0,36,0.00,,,0.00,WUHU216HW,2013-10-11 14:17:00,
2013-10-11 08:22:00,63.7,36.1,29.88,North,0,0.0,0.0,36,0.00,,,0.00,WUHU216HW,2013-10-11 14:22:00,
2013-10-11 08:27:00,63.7,36.1,29.88,North,0,0.0,0.0,36,0.00,,,0.00,WUHU216HW,2013-10-11 14:27:00,
2013-10-11 08:32:00,63.9,36.3,29.88,North,0,0.0,0.0,36,0.00,,,0.00,WUHU216HW,2013-10-11 14:32:00,
2013-10-11 08:37:00,63.7,36.1,29.88,North,0,0.0,0.0,36,0.00,,,0.00,WUHU216HW,2013-10-11 14:37:00,
2013-10-11 08:42:00,63.7,36.1,29.88,North,0,0.0,0.0,36,0.00,,,0.00,WUHU216HW,2013-10-11 14:42:00,
2013-10-11 08:47:00,64.1,36.4,29.88,North,0,0.0,0.0,36,0.00,,,0.00,WUHU216HW,2013-10-11 14:47:00,
2013-10-11 08:52:00,64.1,36.4,29.88,North,0,0.0,0.0,36,0.00,,,0.00,WUHU216HW,2013-10-11 14:52:00,
2013-10-11 08:57:00,64.1,36.4,29.88,North,0,0.0,0.0,36,0.00,,,0.00,WUHU216HW,2013-10-11 14:57:00,
2013-10-11 09:02:00,64.3,37.3,29.89,North,0,0.0,0.0,37,0.00,,,0.00,WUHU216HW,2013-10-11 15:02:00,
2013-10-11 09:07:00,64.6,36.9,29.89,North,0,0.0,0.0,36,0.00,,,0.00,WUHU216HW,2013-10-11 15:07:00,
2013-10-11 09:12:00,64.8,37.1,29.88,North,0,0.0,0.0,36,0.00,,,0.00,WUHU216HW,2013-10-11 15:12:00,
2013-10-11 09:17:00,65.0,37.2,29.89,North,0,0.0,0.0,36,0.00,,,0.00,WUHU216HW,2013-10-11 15:17:00,
2013-10-11 09:22:00,65.2,37.4,29.88,North,0,0.0,0.0,36,0.00,,,0.00,WUHU216HW,2013-10-11 15:22:00,
2013-10-11 09:27:00,65.2,37.4,29.89,North,0,0.0,0.0,36,0.00,,,0.00,WUHU216HW,2013-10-11 15:27:00,
2013-10-11 09:32:00,65.3,37.5,29.89,North,0,0.0,0.0,36,0.00,,,0.00,WUHU216HW,2013-10-11 15:32:00,
2013-10-11 09:37:00,65.5,37.7,29.89,North,0,0.0,0.0,36,0.00,,,0.00,WUHU216HW,2013-10-11 15:37:00,
2013-10-11 09:42:00,65.9,38.0,29.89,North,0,0.0,0.0,36,0.00,,,0.00,WUHU216HW,2013-10-11 15:42:00,
2013-10-11 09:47:00,66.1,38.2,29.89,North,0,0.0,0.0,36,0.00,,,0.00,WUHU216HW,2013-10-11 15:47:00,
2013-10-11 09:52:00,66.4,37.8,29.89,North,0,0.0,0.0,35,0.00,,,0.00,WUHU216HW,2013-10-11 15:52:00,
2013-10-11 09:57:00,66.6,37.2,29.89,North,0,0.0,0.0,34,0.00,,,0.00,WUHU216HW,2013-10-11 15:57:00,
2013-10-11 10:02:00,67.0,37.5,29.89,North,0,0.0,0.0,34,0.00,,,0.00,WUHU216HW,2013-10-11 16:02:00,
2013-10-11 10:07:00,67.1,38.4,29.89,North,0,0.0,0.0,35,0.00,,,0.00,WUHU216HW,2013-10-11 16:07:00,
2013-10-11 10:12:00,67.3,38.5,29.90,North,0,0.0,0.0,35,0.00,,,0.00,WUHU216HW,2013-10-11 16:12:00,
2013-10-11 10:17:00,67.7,38.9,29.90,North,0,0.0,0.0,35,0.00,,,0.00,WUHU216HW,2013-10-11 16:17:00,
2013-10-11 10:22:00,68.0,39.2,29.89,North,0,0.0,0.0,35,0.00,,,0.00,WUHU216HW,2013-10-11 16:22:00,
2013-10-11 10:27:00,68.2,38.6,29.89,North,0,0.0,0.0,34,0.00,,,0.00,WUHU216HW,2013-10-11 16:27:00,
2013-10-11 10:32:00,68.4,38.7,29.89,North,0,0.0,0.0,34,0.00,,,0.00,WUHU216HW,2013-10-11 16:32:00,
2013-10-11 10:37:00,68.6,38.9,29.89,North,0,0.0,0.0,34,0.00,,,0.00,WUHU216HW,2013-10-11 16:37:00,
2013-10-11 10:42:00,68.6,38.9,29.89,North,0,0.0,0.0,34,0.00,,,0.00,WUHU216HW,2013-10-11 16:42:00,
2013-10-11 10:47:00,68.6,38.9,29.89,North,0,0.0,0.0,34,0.00,,,0.00,WUHU216HW,2013-10-11 16:47:00,
2013-10-11 10:52:00,68.6,38.9,29.89,North,0,0.0,0.0,34,0.00,,,0.00,WUHU216HW,2013-10-11 16:52:00,
2013-10-11 10:57:00,68.9,39.3,29.89,North,0,0.0,0.0,34,0.00,,,0.00,WUHU216HW,2013-10-11 16:57:00,
2013-10-11 11:02:00,69.3,39.5,29.89,North,0,0.0,0.0,34,0.00,,,0.00,WUHU216HW,2013-10-11 17:02:00,
2013-10-11 11:07:00,69.5,39.0,29.89,North,0,0.0,0.0,33,0.00,,,0.00,WUHU216HW,2013-10-11 17:07:00,
2013-10-11 11:12:00,69.7,39.2,29.89,North,0,0.0,0.0,33,0.00,,,0.00,WUHU216HW,2013-10-11 17:12:00,
2013-10-11 11:17:00,69.8,39.3,29.89,North,0,0.0,0.0,33,0.00,,,0.00,WUHU216HW,2013-10-11 17:17:00,
2013-10-11 11:22:00,70.0,39.4,29.89,North,0,0.0,0.0,33,0.00,,,0.00,WUHU216HW,2013-10-11 17:22:00,
2013-10-11 11:27:00,70.2,39.6,29.89,North,0,0.0,0.0,33,0.00,,,0.00,WUHU216HW,2013-10-11 17:27:00,
2013-10-11 11:32:00,70.4,39.8,29.89,North,0,0.0,0.0,33,0.00,,,0.00,WUHU216HW,2013-10-11 17:32:00,
2013-10-11 11:37:00,70.6,39.3,29.88,North,0,0.0,0.0,32,0.00,,,0.00,WUHU216HW,2013-10-11 17:37:00,
2013-10-11 11:42:00,70.7,39.3,29.89,North,0,0.0,0.0,32,0.00,,,0.00,WUHU216HW,2013-10-11 17:42:00,
2013-10-11 11:47:00,70.9,39.5,29.89,North,0,0.0,0.0,32,0.00,,,0.00,WUHU216HW,2013-10-11 17:47:00,
2013-10-11 11:52:00,71.1,39.7,29.89,North,0,0.0,0.0,32,0.00,,,0.00,WUHU216HW,2013-10-11 17:52:00,
2013-10-11 11:57:00,71.3,39.9,29.88,North,0,0.0,0.0,32,0.00,,,0.00,WUHU216HW,2013-10-11 17:57:00,
2013-10-11 12:02:00,71.6,40.1,29.88,North,0,0.0,0.0,32,0.00,,,0.00,WUHU216HW,2013-10-11 18:02:00,
2013-10-11 12:07:00,71.8,40.3,29.88,North,0,0.0,0.0,32,0.00,,,0.00,WUHU216HW,2013-10-11 18:07:00,
2013-10-11 12:12:00,72.0,40.5,29.88,North,0,0.0,0.0,32,0.00,,,0.00,WUHU216HW,2013-10-11 18:12:00,
2013-10-11 12:17:00,72.2,40.6,29.88,North,0,0.0,0.0,32,0.00,,,0.00,WUHU216HW,2013-10-11 18:17:00,
2013-10-11 12:22:00,72.4,40.8,29.88,North,0,0.0,0.0,32,0.00,,,0.00,WUHU216HW,2013-10-11 18:22:00,
2013-10-11 12:27:00,72.5,40.1,29.88,North,0,0.0,0.0,31,0.00,,,0.00,WUHU216HW,2013-10-11 18:27:00,
2013-10-11 12:32:00,72.7,40.3,29.87,North,0,0.0,0.0,31,0.00,,,0.00,WUHU216HW,2013-10-11 18:32:00,
2013-10-11 12:37:00,73.1,40.6,29.88,North,0,0.0,0.0,31,0.00,,,0.00,WUHU216HW,2013-10-11 18:37:00,
2013-10-11 12:42:00,73.4,40.1,29.87,North,0,0.0,0.0,30,0.00,,,0.00,WUHU216HW,2013-10-11 18:42:00,
2013-10-11 12:47:00,73.4,40.1,29.87,North,0,0.0,0.0,30,0.00,,,0.00,WUHU216HW,2013-10-11 18:47:00,
2013-10-11 12:52:00,73.3,40.0,29.87,North,0,0.0,0.0,30,0.00,,,0.00,WUHU216HW,2013-10-11 18:52:00,
2013-10-11 12:57:00,73.4,40.1,29.87,North,0,0.0,0.0,30,0.00,,,0.00,WUHU216HW,2013-10-11 18:57:00,
2013-10-11 13:02:00,73.4,40.1,29.87,North,0,0.0,0.0,30,0.00,,,0.00,WUHU216HW,2013-10-11 19:02:00,
2013-10-11 13:07:00,73.8,40.5,29.87,North,0,0.0,0.0,30,0.00,,,0.00,WUHU216HW,2013-10-11 19:07:00,
2013-10-11 13:12:00,74.0,40.6,29.86,North,0,0.0,0.0,30,0.00,,,0.00,WUHU216HW,2013-10-11 19:12:00,
2013-10-11 13:17:00,74.2,40.8,29.86,North,0,0.0,0.0,30,0.00,,,0.00,WUHU216HW,2013-10-11 19:17:00,
2013-10-11 13:22:00,74.3,41.0,29.86,North,0,0.0,0.0,30,0.00,,,0.00,WUHU216HW,2013-10-11 19:22:00,
2013-10-11 13:27:00,74.5,41.1,29.86,North,0,0.0,0.0,30,0.00,,,0.00,WUHU216HW,2013-10-11 19:27:00,
2013-10-11 13:32:00,74.7,40.2,29.85,North,0,0.0,0.0,29,0.00,,,0.00,WUHU216HW,2013-10-11 19:32:00,
2013-10-11 13:37:00,74.9,40.4,29.85,North,0,0.0,0.0,29,0.00,,,0.00,WUHU216HW,2013-10-11 19:37:00,
2013-10-11 13:42:00,75.2,40.8,29.85,North,0,0.0,0.0,29,0.00,,,0.00,WUHU216HW,2013-10-11 19:42:00,
2013-10-11 13:47:00,75.2,40.8,29.85,North,0,0.0,0.0,29,0.00,,,0.00,WUHU216HW,2013-10-11 19:47:00,
2013-10-11 13:52:00,75.4,40.9,29.85,North,0,0.0,0.0,29,0.00,,,0.00,WUHU216HW,2013-10-11 19:52:00,
2013-10-11 13:57:00,75.2,40.8,29.84,North,0,0.0,0.0,29,0.00,,,0.00,WUHU216HW,2013-10-11 19:57:00,
2013-10-11 14:02:00,75.6,40.1,29.84,North,0,0.0,0.0,28,0.00,,,0.00,WUHU216HW,2013-10-11 20:02:00,
2013-10-11 14:07:00,75.8,40.1,29.84,North,0,0.0,0.0,28,0.00,,,0.00,WUHU216HW,2013-10-11 20:07:00,
2013-10-11 14:12:00,76.0,40.3,29.84,North,0,0.0,0.0,28,0.00,,,0.00,WUHU216HW,2013-10-11 20:12:00,
2013-10-11 14:17:00,76.0,40.3,29.84,North,0,0.0,0.0,28,0.00,,,0.00,WUHU216HW,2013-10-11 20:17:00,
2013-10-11 14:22:00,76.3,40.7,29.83,North,0,0.0,0.0,28,0.00,,,0.00,WUHU216HW,2013-10-11 20:22:00,
2013-10-11 14:27:00,76.3,40.7,29.83,North,0,0.0,0.0,28,0.00,,,0.00,WUHU216HW,2013-10-11 20:27:00,
2013-10-11 14:32:00,76.5,40.9,29.83,North,0,0.0,0.0,28,0.00,,,0.00,WUHU216HW,2013-10-11 20:32:00,
2013-10-11 14:37:00,76.5,39.8,29.83,North,0,0.0,0.0,27,0.00,,,0.00,WUHU216HW,2013-10-11 20:37:00,
2013-10-11 14:42:00,76.7,38.9,29.83,North,0,0.0,0.0,26,0.00,,,0.00,WUHU216HW,2013-10-11 20:42:00,
2013-10-11 14:47:00,76.7,38.9,29.83,North,0,0.0,0.0,26,0.00,,,0.00,WUHU216HW,2013-10-11 20:47:00,
2013-10-11 14:52:00,76.7,38.9,29.83,North,0,0.0,0.0,26,0.00,,,0.00,WUHU216HW,2013-10-11 20:52:00,
2013-10-11 14:57:00,77.0,39.3,29.83,North,0,0.0,0.0,26,0.00,,,0.00,WUHU216HW,2013-10-11 20:57:00,
2013-10-11 15:02:00,77.2,39.3,29.83,North,0,0.0,0.0,26,0.00,,,0.00,WUHU216HW,2013-10-11 21:02:00,
2013-10-11 15:07:00,77.4,39.5,29.83,North,0,0.0,0.0,26,0.00,,,0.00,WUHU216HW,2013-10-11 21:07:00,
2013-10-11 15:12:00,77.6,38.6,29.83,North,0,0.0,0.0,25,0.00,,,0.00,WUHU216HW,2013-10-11 21:12:00,
2013-10-11 15:17:00,77.6,38.6,29.83,North,0,0.0,0.0,25,0.00,,,0.00,WUHU216HW,2013-10-11 21:17:00,
2013-10-11 15:22:00,77.6,38.6,29.83,North,0,0.0,0.0,25,0.00,,,0.00,WUHU216HW,2013-10-11 21:22:00,
2013-10-11 15:27:00,77.6,38.6,29.83,North,0,0.0,0.0,25,0.00,,,0.00,WUHU216HW,2013-10-11 21:27:00,
2013-10-11 15:32:00,77.6,38.6,29.83,North,0,0.0,0.0,25,0.00,,,0.00,WUHU216HW,2013-10-11 21:32:00,
2013-10-11 15:37:00,77.8,38.7,29.83,North,0,0.0,0.0,25,0.00,,,0.00,WUHU216HW,2013-10-11 21:37:00,
2013-10-11 15:42:00,77.9,37.8,29.83,North,0,0.0,0.0,24,0.00,,,0.00,WUHU216HW,2013-10-11 21:42:00,
2013-10-11 15:47:00,77.9,38.9,29.83,North,0,0.0,0.0,25,0.00,,,0.00,WUHU216HW,2013-10-11 21:47:00,
2013-10-11 15:52:00,77.9,37.8,29.83,North,0,0.0,0.0,24,0.00,,,0.00,WUHU216HW,2013-10-11 21:52:00,
2013-10-11 15:57:00,78.1,38.0,29.83,North,0,0.0,0.0,24,0.00,,,0.00,WUHU216HW,2013-10-11 21:57:00,
2013-10-11 16:02:00,78.3,38.2,29.82,North,0,0.0,0.0,24,0.00,,,0.00,WUHU216HW,2013-10-11 22:02:00,
2013-10-11 16:07:00,78.3,38.2,29.83,North,0,0.0,0.0,24,0.00,,,0.00,WUHU216HW,2013-10-11 22:07:00,
2013-10-11 16:12:00,78.1,38.0,29.83,North,0,0.0,0.0,24,0.00,,,0.00,WUHU216HW,2013-10-11 22:12:00,
2013-10-11 16:17:00,78.1,38.0,29.82,North,0,0.0,0.0,24,0.00,,,0.00,WUHU216HW,2013-10-11 22:17:00,
2013-10-11 16:22:00,78.1,38.0,29.83,North,0,0.0,0.0,24,0.00,,,0.00,WUHU216HW,2013-10-11 22:22:00,
2013-10-11 16:27:00,78.1,38.0,29.83,North,0,0.0,0.0,24,0.00,,,0.00,WUHU216HW,2013-10-11 22:27:00,
2013-10-11 16:32:00,78.3,38.2,29.83,North,0,0.0,0.0,24,0.00,,,0.00,WUHU216HW,2013-10-11 22:32:00,
2013-10-11 16:37:00,78.3,38.2,29.83,North,0,0.0,0.0,24,0.00,,,0.00,WUHU216HW,2013-10-11 22:37:00,
2013-10-11 16:42:00,78.1,38.0,29.83,North,0,0.0,0.0,24,0.00,,,0.00,WUHU216HW,2013-10-11 22:42:00,
2013-10-11 16:47:00,78.1,38.0,29.83,North,0,0.0,0.0,24,0.00,,,0.00,WUHU216HW,2013-10-11 22:47:00,
2013-10-11 16:52:00,78.1,38.0,29.83,North,0,0.0,0.0,24,0.00,,,0.00,WUHU216HW,2013-10-11 22:52:00,
2013-10-11 16:57:00,78.1,38.0,29.83,North,0,0.0,0.0,24,0.00,,,0.00,WUHU216HW,2013-10-11 22:57:00,
2013-10-11 17:02:00,77.9,37.8,29.83,North,0,0.0,0.0,24,0.00,,,0.00,WUHU216HW,2013-10-11 23:02:00,
2013-10-11 17:07:00,77.9,37.8,29.82,North,0,0.0,0.0,24,0.00,,,0.00,WUHU216HW,2013-10-11 23:07:00,
2013-10-11 17:12:00,77.8,37.7,29.82,North,0,0.0,0.0,24,0.00,,,0.00,WUHU216HW,2013-10-11 23:12:00,
2013-10-11 17:17:00,77.6,37.5,29.82,North,0,0.0,0.0,24,0.00,,,0.00,WUHU216HW,2013-10-11 23:17:00,
2013-10-11 17:22:00,77.4,37.5,29.82,North,0,0.0,0.0,24,0.00,,,0.00,WUHU216HW,2013-10-11 23:22:00,
2013-10-11 17:27:00,77.4,37.5,29.83,North,0,0.0,0.0,24,0.00,,,0.00,WUHU216HW,2013-10-11 23:27:00,
2013-10-11 17:32:00,77.2,37.3,29.83,North,0,0.0,0.0,24,0.00,,,0.00,WUHU216HW,2013-10-11 23:32:00,
2013-10-11 17:37:00,77.0,37.1,29.81,North,0,0.0,0.0,24,0.00,,,0.00,WUHU216HW,2013-10-11 23:37:00,
2013-10-11 17:42:00,77.0,37.1,29.82,North,0,0.0,0.0,24,0.00,,,0.00,WUHU216HW,2013-10-11 23:42:00,
2013-10-11 17:47:00,76.9,38.0,29.82,North,0,0.0,0.0,25,0.00,,,0.00,WUHU216HW,2013-10-11 23:47:00,
2013-10-11 17:52:00,76.7,37.9,29.82,North,0,0.0,0.0,25,0.00,,,0.00,WUHU216HW,2013-10-11 23:52:00,
2013-10-11 17:57:00,76.7,37.9,29.82,North,0,0.0,0.0,25,0.00,,,0.00,WUHU216HW,2013-10-11 23:57:00,
2013-10-11 18:02:00,76.5,37.7,29.82,North,0,0.0,0.0,25,0.00,,,0.00,WUHU216HW,2013-10-12 00:02:00,
2013-10-11 18:07:00,76.5,37.7,29.82,North,0,0.0,0.0,25,0.00,,,0.00,WUHU216HW,2013-10-12 00:07:00,
2013-10-11 18:12:00,76.3,37.5,29.82,North,0,0.0,0.0,25,0.00,,,0.00,WUHU216HW,2013-10-12 00:12:00,
2013-10-11 18:17:00,76.1,37.4,29.82,North,0,0.0,0.0,25,0.00,,,0.00,WUHU216HW,2013-10-12 00:17:00,
2013-10-11 18:22:00,76.0,37.3,29.82,North,0,0.0,0.0,25,0.00,,,0.00,WUHU216HW,2013-10-12 00:22:00,
2013-10-11 18:27:00,76.0,37.3,29.82,North,0,0.0,0.0,25,0.00,,,0.00,WUHU216HW,2013-10-12 00:27:00,
2013-10-11 18:32:00,75.8,37.1,29.81,North,0,0.0,0.0,25,0.00,,,0.00,WUHU216HW,2013-10-12 00:32:00,
2013-10-11 18:37:00,75.8,37.1,29.81,North,0,0.0,0.0,25,0.00,,,0.00,WUHU216HW,2013-10-12 00:37:00,
2013-10-11 18:42:00,75.6,36.9,29.82,North,0,0.0,0.0,25,0.00,,,0.00,WUHU216HW,2013-10-12 00:42:00,
2013-10-11 18:47:00,75.4,37.8,29.81,North,0,0.0,0.0,26,0.00,,,0.00,WUHU216HW,2013-10-12 00:47:00,
2013-10-11 18:52:00,75.2,37.6,29.82,North,0,0.0,0.0,26,0.00,,,0.00,WUHU216HW,2013-10-12 00:52:00,
2013-10-11 18:57:00,75.4,37.8,29.82,North,0,0.0,0.0,26,0.00,,,0.00,WUHU216HW,2013-10-12 00:57:00,
2013-10-11 19:02:00,75.2,37.6,29.82,North,0,0.0,0.0,26,0.00,,,0.00,WUHU216HW,2013-10-12 01:02:00,
2013-10-11 19:07:00,75.2,37.6,29.82,North,0,0.0,0.0,26,0.00,,,0.00,WUHU216HW,2013-10-12 01:07:00,
2013-10-11 19:12:00,75.2,37.6,29.82,North,0,0.0,0.0,26,0.00,,,0.00,WUHU216HW,2013-10-12 01:12:00,
2013-10-11 19:17:00,75.2,37.6,29.82,North,0,0.0,0.0,26,0.00,,,0.00,WUHU216HW,2013-10-12 01:17:00,
2013-10-11 19:22:00,75.1,37.5,29.82,North,0,0.0,0.0,26,0.00,,,0.00,WUHU216HW,2013-10-12 01:22:00,
2013-10-11 19:27:00,75.1,37.5,29.82,North,0,0.0,0.0,26,0.00,,,0.00,WUHU216HW,2013-10-12 01:27:00,
2013-10-11 19:32:00,75.1,37.5,29.82,North,0,0.0,0.0,26,0.00,,,0.00,WUHU216HW,2013-10-12 01:32:00,
2013-10-11 19:37:00,75.1,37.5,29.82,North,0,0.0,0.0,26,0.00,,,0.00,WUHU216HW,2013-10-12 01:37:00,
2013-10-11 19:42:00,74.9,37.4,29.82,North,0,0.0,0.0,26,0.00,,,0.00,WUHU216HW,2013-10-12 01:42:00,
2013-10-11 19:47:00,74.9,38.3,29.83,North,0,0.0,0.0,27,0.00,,,0.00,WUHU216HW,2013-10-12 01:47:00,
2013-10-11 19:52:00,74.7,38.3,29.83,North,0,0.0,0.0,27,0.00,,,0.00,WUHU216HW,2013-10-12 01:52:00,
2013-10-11 19:57:00,74.7,38.3,29.83,North,0,0.0,0.0,27,0.00,,,0.00,WUHU216HW,2013-10-12 01:57:00,
2013-10-11 20:02:00,74.7,38.3,29.83,North,0,0.0,0.0,27,0.00,,,0.00,WUHU216HW,2013-10-12 02:02:00,
2013-10-11 20:07:00,74.5,39.1,29.83,North,0,0.0,0.0,28,0.00,,,0.00,WUHU216HW,2013-10-12 02:07:00,
2013-10-11 20:12:00,74.3,38.9,29.83,North,0,0.0,0.0,28,0.00,,,0.00,WUHU216HW,2013-10-12 02:12:00,
2013-10-11 20:17:00,74.3,38.9,29.83,North,0,0.0,0.0,28,0.00,,,0.00,WUHU216HW,2013-10-12 02:17:00,
2013-10-11 20:22:00,74.2,38.8,29.83,North,0,0.0,0.0,28,0.00,,,0.00,WUHU216HW,2013-10-12 02:22:00,
2013-10-11 20:27:00,74.2,38.8,29.83,North,0,0.0,0.0,28,0.00,,,0.00,WUHU216HW,2013-10-12 02:27:00,
2013-10-11 20:32:00,74.0,39.6,29.83,North,0,0.0,0.0,29,0.00,,,0.00,WUHU216HW,2013-10-12 02:32:00,
2013-10-11 20:37:00,73.8,39.4,29.83,North,0,0.0,0.0,29,0.00,,,0.00,WUHU216HW,2013-10-12 02:37:00,
2013-10-11 20:42:00,73.6,39.3,29.84,North,0,0.0,0.0,29,0.00,,,0.00,WUHU216HW,2013-10-12 02:42:00,
2013-10-11 20:47:00,73.4,39.2,29.84,North,0,0.0,0.0,29,0.00,,,0.00,WUHU216HW,2013-10-12 02:47:00,
2013-10-11 20:52:00,72.9,38.7,29.84,North,0,0.0,0.0,29,0.00,,,0.00,WUHU216HW,2013-10-12 02:52:00,
2013-10-11 20:57:00,72.7,38.5,29.84,North,0,0.0,0.0,29,0.00,,,0.00,WUHU216HW,2013-10-12 02:57:00,
2013-10-11 21:02:00,72.7,38.5,29.84,North,0,0.0,0.0,29,0.00,,,0.00,WUHU216HW,2013-10-12 03:02:00,
2013-10-11 21:07:00,72.5,38.4,29.85,North,0,0.0,0.0,29,0.00,,,0.00,WUHU216HW,2013-10-12 03:07:00,
2013-10-11 21:12:00,72.5,38.4,29.85,North,0,0.0,0.0,29,0.00,,,0.00,WUHU216HW,2013-10-12 03:12:00,
2013-10-11 21:17:00,72.2,38.1,29.85,North,0,0.0,0.0,29,0.00,,,0.00,WUHU216HW,2013-10-12 03:17:00,
2013-10-11 21:22:00,71.8,37.8,29.85,North,0,0.0,0.0,29,0.00,,,0.00,WUHU216HW,2013-10-12 03:22:00,
2013-10-11 21:27:00,71.6,37.7,29.85,North,0,0.0,0.0,29,0.00,,,0.00,WUHU216HW,2013-10-12 03:27:00,
2013-10-11 21:32:00,71.3,38.3,29.85,North,0,0.0,0.0,30,0.00,,,0.00,WUHU216HW,2013-10-12 03:32:00,
2013-10-11 21:37:00,71.1,38.3,29.85,North,0,0.0,0.0,30,0.00,,,0.00,WUHU216HW,2013-10-12 03:37:00,
2013-10-11 21:42:00,70.9,38.1,29.85,North,0,0.0,0.0,30,0.00,,,0.00,WUHU216HW,2013-10-12 03:42:00,
2013-10-11 21:47:00,70.7,37.9,29.85,North,0,0.0,0.0,30,0.00,,,0.00,WUHU216HW,2013-10-12 03:47:00,
2013-10-11 21:52:00,70.7,37.9,29.85,North,0,0.0,0.0,30,0.00,,,0.00,WUHU216HW,2013-10-12 03:52:00,
2013-10-11 21:57:00,70.9,38.1,29.85,North,0,0.0,0.0,30,0.00,,,0.00,WUHU216HW,2013-10-12 03:57:00,
2013-10-11 22:01:00,70.9,38.1,29.85,North,0,0.0,0.0,30,0.00,,,0.00,WUHU216HW,2013-10-12 04:01:00,
2013-10-11 22:06:00,70.7,37.9,29.85,North,0,0.0,0.0,30,0.00,,,0.00,WUHU216HW,2013-10-12 04:06:00,
2013-10-11 22:11:00,70.6,37.7,29.85,North,0,0.0,0.0,30,0.00,,,0.00,WUHU216HW,2013-10-12 04:11:00,
2013-10-11 22:17:00,70.2,37.5,29.85,North,0,0.0,0.0,30,0.00,,,0.00,WUHU216HW,2013-10-12 04:17:00,
2013-10-11 22:22:00,69.8,37.8,29.85,North,0,0.0,0.0,31,0.00,,,0.00,WUHU216HW,2013-10-12 04:22:00,
2013-10-11 22:27:00,69.5,37.5,29.85,North,0,0.0,0.0,31,0.00,,,0.00,WUHU216HW,2013-10-12 04:27:00,
2013-10-11 22:32:00,69.3,37.4,29.85,North,0,0.0,0.0,31,0.00,,,0.00,WUHU216HW,2013-10-12 04:32:00,
2013-10-11 22:36:00,68.9,37.7,29.86,North,0,0.0,0.0,32,0.00,,,0.00,WUHU216HW,2013-10-12 04:36:00,
2013-10-11 22:42:00,68.8,37.6,29.85,North,0,0.0,0.0,32,0.00,,,0.00,WUHU216HW,2013-10-12 04:42:00,
2013-10-11 22:47:00,68.9,37.7,29.85,North,0,0.0,0.0,32,0.00,,,0.00,WUHU216HW,2013-10-12 04:47:00,
2013-10-11 22:52:00,69.3,38.1,29.85,North,0,0.0,0.0,32,0.00,,,0.00,WUHU216HW,2013-10-12 04:52:00,
2013-10-11 22:57:00,69.5,38.3,29.85,North,0,0.0,0.0,32,0.00,,,0.00,WUHU216HW,2013-10-12 04:57:00,
2013-10-11 23:02:00,68.9,37.7,29.86,North,0,0.0,0.0,32,0.00,,,0.00,WUHU216HW,2013-10-12 05:02:00,
2013-10-11 23:07:00,68.4,37.3,29.86,North,0,0.0,0.0,32,0.00,,,0.00,WUHU216HW,2013-10-12 05:07:00,
2013-10-11 23:12:00,68.2,37.1,29.86,North,0,0.0,0.0,32,0.00,,,0.00,WUHU216HW,2013-10-12 05:12:00,
2013-10-11 23:17:00,68.2,37.8,29.86,North,0,0.0,0.0,33,0.00,,,0.00,WUHU216HW,2013-10-12 05:17:00,
2013-10-11 23:22:00,68.4,38.0,29.86,North,0,0.0,0.0,33,0.00,,,0.00,WUHU216HW,2013-10-12 05:22:00,
2013-10-11 23:27:00,68.4,38.0,29.86,North,0,0.0,0.0,33,0.00,,,0.00,WUHU216HW,2013-10-12 05:27:00,
2013-10-11 23:32:00,68.0,37.7,29.86,North,0,0.0,0.0,33,0.00,,,0.00,WUHU216HW,2013-10-12 05:32:00,
2013-10-11 23:37:00,67.7,37.4,29.86,North,0,0.0,0.0,33,0.00,,,0.00,WUHU216HW,2013-10-12 05:37:00,
2013-10-11 23:42:00,67.7,37.4,29.86,North,0,0.0,0.0,33,0.00,,,0.00,WUHU216HW,2013-10-12 05:42:00,
2013-10-11 23:47:00,67.9,37.5,29.86,North,0,0.0,0.0,33,0.00,,,0.00,WUHU216HW,2013-10-12 05:47:00,
2013-10-11 23:52:00,68.0,37.7,29.86,North,0,0.0,0.0,33,0.00,,,0.00,WUHU216HW,2013-10-12 05:52:00,
2013-10-11 23:57:00,68.4,38.0,29.86,North,0,0.0,0.0,33,0.00,,,0.00,WUHU216HW,2013-10-12 05:57:00,